| time (UTC) | temp C | wind direction | speed KPH | gust KPH | rain 1hr cm | rain 24hr cm | rain mn cm | humidity % | barometer mb |
| 20260509170810 | 25 | 57 | 1.6 | 6.4 | 0.00 | 0.00 | 0.00 | 49 | 1006.3 |
| 20260509170308 | 25 | 240 | 1.6 | 6.4 | 0.00 | 0.00 | 0.00 | 50 | 1006.5 |
| 20260509165809 | 25 | 225 | 1.6 | 4.8 | 0.00 | 0.00 | 0.00 | 50 | 1006.5 |
| 20260509165311 | 25 | 350 | 1.6 | 6.4 | 0.00 | 0.00 | 0.00 | 49 | 1006.6 |
| 20260509165024 | 24 | 214 | 1.6 | 9.7 | 0.00 | 0.00 | 0.00 | 51 | 1006.7 |
| 20260509164259 | 24 | 120 | 1.6 | 9.7 | 0.00 | 0.00 | 0.00 | 50 | 1006.9 |
| 20260509163754 | 24 | 117 | 1.6 | 6.4 | 0.00 | 0.00 | 0.00 | 50 | 1006.9 |
| 20260509163248 | 24 | 145 | 1.6 | 8.0 | 0.00 | 0.00 | 0.00 | 51 | 1006.8 |
| 20260509162742 | 23 | 90 | 3.2 | 8.0 | 0.00 | 0.00 | 0.00 | 52 | 1006.7 |
| 20260509162236 | 23 | 4 | 1.6 | 8.0 | 0.00 | 0.00 | 0.00 | 52 | 1006.7 |
| 20260509161730 | 23 | 68 | 1.6 | 6.4 | 0.00 | 0.00 | 0.00 | 53 | 1006.8 |
| 20260509161224 | 22 | 162 | 1.6 | 6.4 | 0.00 | 0.00 | 0.00 | 52 | 1006.8 |
| 20260509160945 | 22 | 334 | 1.6 | 9.7 | 0.00 | 0.00 | 0.00 | 53 | 1007.0 |
| 20260509160211 | 22 | 205 | 1.6 | 9.7 | 0.00 | 0.00 | 0.00 | 53 | 1007.1 |
| 20260509155706 | 22 | 31 | 1.6 | 8.0 | 0.00 | 0.00 | 0.00 | 53 | 1007.0 |
| 20260509155200 | 22 | 168 | 1.6 | 8.0 | 0.00 | 0.00 | 0.00 | 51 | 1007.1 |
| 20260509154654 | 22 | 169 | 1.6 | 4.8 | 0.00 | 0.00 | 0.00 | 52 | 1007.2 |
| 20260509154148 | 22 | 197 | 1.6 | 6.4 | 0.00 | 0.00 | 0.00 | 54 | 1007.3 |
| 20260509153641 | 22 | 136 | 1.6 | 6.4 | 0.00 | 0.00 | 0.00 | 55 | 1007.3 |
| 20260509153357 | 21 | 155 | 0.0 | 4.8 | 0.00 | 0.00 | 0.00 | 56 | 1007.3 |
| 20260509152630 | 21 | 217 | 1.6 | 9.7 | 0.00 | 0.00 | 0.00 | 60 | 1007.3 |
| 20260509152124 | 21 | 153 | 1.6 | 9.7 | 0.00 | 0.00 | 0.00 | 59 | 1007.3 |
| 20260509151618 | 21 | 215 | 1.6 | 6.4 | 0.00 | 0.00 | 0.00 | 59 | 1007.6 |
| 20260509151112 | 20 | 335 | 1.6 | 4.8 | 0.00 | 0.00 | 0.00 | 60 | 1007.6 |
| 20260509150607 | 20 | 58 | 1.6 | 6.4 | 0.00 | 0.00 | 0.00 | 60 | 1007.6 |
| 20260509145554 | 20 | 230 | 0.0 | 4.8 | 0.00 | 0.00 | 0.00 | 62 | 1007.7 |
| 20260509145047 | 20 | 52 | 0.0 | 3.2 | 0.00 | 0.00 | 0.00 | 62 | 1007.8 |
| 20260509144541 | 20 | 205 | 0.0 | 4.8 | 0.00 | 0.00 | 0.00 | 65 | 1007.9 |
| 20260509144036 | 20 | 275 | 0.0 | 4.8 | 0.00 | 0.00 | 0.00 | 64 | 1008.1 |
| 20260509143529 | 19 | 355 | 0.0 | 4.8 | 0.00 | 0.00 | 0.00 | 66 | 1008.3 |
| 20260509143024 | 19 | 22 | 1.6 | 8.0 | 0.00 | 0.00 | 0.00 | 66 | 1008.3 |
| 20260509142518 | 19 | 78 | 0.0 | 8.0 | 0.00 | 0.00 | 0.00 | 66 | 1008.4 |
| 20260509142011 | 19 | 330 | 0.0 | 4.8 | 0.00 | 0.00 | 0.00 | 67 | 1008.4 |
| 20260509141505 | 18 | 221 | 0.0 | 4.8 | 0.00 | 0.00 | 0.00 | 67 | 1008.5 |
| 20260509141000 | 18 | 195 | 0.0 | 4.8 | 0.00 | 0.00 | 0.00 | 68 | 1008.5 |
| 20260509140710 | 18 | 22 | 0.0 | 4.8 | 0.00 | 0.00 | 0.00 | 69 | 1008.4 |
| 20260509140210 | 18 | 221 | 0.0 | 6.4 | 0.00 | 0.00 | 0.00 | 70 | 1008.3 |
| 20260509135707 | 18 | 353 | 0.0 | 6.4 | 0.00 | 0.00 | 0.00 | 70 | 1008.4 |
| 20260509135152 | 18 | 288 | 0.0 | 1.6 | 0.00 | 0.00 | 0.00 | 72 | 1008.4 |
| 20260509134430 | 17 | 28 | 0.0 | 1.6 | 0.00 | 0.00 | 0.00 | 73 | 1008.5 |
| 20260509133923 | 17 | 28 | 1.6 | 8.0 | 0.00 | 0.00 | 0.00 | 73 | 1008.7 |
| 20260509133418 | 17 | 91 | 1.6 | 8.0 | 0.00 | 0.00 | 0.00 | 73 | 1008.9 |
| 20260509132911 | 17 | 345 | 0.0 | 4.8 | 0.00 | 0.00 | 0.00 | 74 | 1008.9 |
| 20260509132405 | 17 | 151 | 0.0 | 4.8 | 0.00 | 0.00 | 0.00 | 76 | 1008.9 |
| 20260509131900 | 17 | 229 | 0.0 | 0.0 | 0.00 | 0.00 | 0.00 | 77 | 1009.0 |
| 20260509131354 | 16 | 178 | 0.0 | 0.0 | 0.00 | 0.00 | 0.00 | 78 | 1008.9 |
| 20260509130847 | 16 | 174 | 0.0 | 3.2 | 0.00 | 0.00 | 0.00 | 79 | 1008.8 |
| 20260509130342 | 16 | 153 | 0.0 | 3.2 | 0.00 | 0.00 | 0.00 | 79 | 1008.8 |
| 20260509125330 | 15 | 147 | 0.0 | 1.6 | 0.00 | 0.00 | 0.00 | 81 | 1008.6 |
| 20260509124824 | 15 | 146 | 0.0 | 1.6 | 0.00 | 0.00 | 0.00 | 81 | 1008.8 |
| 20260509124318 | 15 | 133 | 0.0 | 1.6 | 0.00 | 0.00 | 0.00 | 82 | 1008.8 |
| 20260509123812 | 15 | 96 | 0.0 | 1.6 | 0.00 | 0.00 | 0.00 | 83 | 1008.7 |
| 20260509123306 | 14 | 105 | 0.0 | 1.6 | 0.00 | 0.00 | 0.00 | 83 | 1008.8 |
| 20260509122800 | 14 | 28 | 0.0 | 1.6 | 0.00 | 0.00 | 0.00 | 84 | 1008.9 |
| 20260509122253 | 14 | 158 | 0.0 | 0.0 | 0.00 | 0.00 | 0.00 | 84 | 1008.9 |
| 20260509121747 | 13 | 158 | 0.0 | 1.6 | 0.00 | 0.00 | 0.00 | 85 | 1009.0 |
| 20260509121500 | 13 | 161 | 0.0 | 1.6 | 0.00 | 0.00 | 0.00 | 85 | 1009.1 |
| 20260509120736 | 13 | 80 | 0.0 | 1.6 | 0.00 | 0.00 | 0.00 | 85 | 1009.1 |
| 20260509120229 | 13 | 44 | 0.0 | 3.2 | 0.00 | 0.00 | 0.00 | 86 | 1009.0 |
| 20260509115723 | 13 | 75 | 0.0 | 3.2 | 0.00 | 0.00 | 0.00 | 87 | 1009.0 |
| 20260509115218 | 12 | 39 | 0.0 | 3.2 | 0.00 | 0.00 | 0.00 | 87 | 1008.9 |
| 20260509115157 | 12 | 44 | 0.0 | 0.0 | 0.00 | 0.00 | 0.00 | 88 | 1008.8 |
| 20260509114209 | 12 | 44 | 0.0 | 0.0 | 0.00 | 0.00 | 0.00 | 88 | 1008.8 |
| 20260509113706 | 12 | 42 | 0.0 | 1.6 | 0.00 | 0.00 | 0.00 | 88 | 1008.7 |
| 20260509113205 | 12 | 42 | 0.0 | 1.6 | 0.00 | 0.00 | 0.00 | 88 | 1008.8 |
| 20260509112925 | 12 | 42 | 0.0 | 0.0 | 0.00 | 0.03 | 0.00 | 88 | 1008.7 |
| 20260509112201 | 11 | 42 | 0.0 | 0.0 | 0.00 | 0.03 | 0.00 | 88 | 1008.7 |
| 20260509111659 | 11 | 34 | 0.0 | 0.0 | 0.00 | 0.03 | 0.00 | 88 | 1008.7 |
| 20260509111157 | 11 | 22 | 0.0 | 1.6 | 0.00 | 0.03 | 0.00 | 88 | 1008.8 |
| 20260509110653 | 11 | 22 | 0.0 | 1.6 | 0.00 | 0.03 | 0.00 | 88 | 1008.9 |
| 20260509110151 | 11 | 266 | 0.0 | 0.0 | 0.00 | 0.03 | 0.00 | 88 | 1008.8 |
| 20260509105652 | 11 | 266 | 0.0 | 0.0 | 0.00 | 0.03 | 0.00 | 88 | 1008.7 |
| 20260509105153 | 11 | 266 | 0.0 | 0.0 | 0.00 | 0.03 | 0.00 | 88 | 1008.8 |
| 20260509104651 | 11 | 266 | 0.0 | 0.0 | 0.00 | 0.03 | 0.00 | 87 | 1008.8 |
| 20260509104412 | 11 | 266 | 0.0 | 0.0 | 0.00 | 0.03 | 0.00 | 87 | 1008.8 |
| 20260509103652 | 11 | 266 | 0.0 | 0.0 | 0.00 | 0.03 | 0.00 | 87 | 1008.8 |
| 20260509103152 | 11 | 266 | 0.0 | 0.0 | 0.00 | 0.03 | 0.00 | 87 | 1008.7 |
| 20260509102921 | 11 | 266 | 0.0 | 0.0 | 0.00 | 0.03 | 0.00 | 87 | 1008.6 |
| 20260509102151 | 11 | 266 | 0.0 | 0.0 | 0.00 | 0.03 | 0.00 | 86 | 1008.5 |
| 20260509101652 | 11 | 266 | 0.0 | 0.0 | 0.00 | 0.03 | 0.00 | 86 | 1008.5 |
| 20260509101410 | 11 | 266 | 0.0 | 0.0 | 0.00 | 0.03 | 0.00 | 86 | 1008.5 |
| 20260509100923 | 11 | 266 | 0.0 | 0.0 | 0.00 | 0.03 | 0.00 | 86 | 1008.6 |
| 20260509100151 | 11 | 266 | 0.0 | 0.0 | 0.00 | 0.03 | 0.00 | 85 | 1008.7 |
| 20260509095652 | 11 | 266 | 0.0 | 0.0 | 0.00 | 0.03 | 0.00 | 85 | 1008.6 |
| 20260509095149 | 11 | 266 | 0.0 | 0.0 | 0.00 | 0.03 | 0.00 | 84 | 1008.7 |
| 20260509094647 | 11 | 266 | 0.0 | 0.0 | 0.00 | 0.03 | 0.00 | 84 | 1008.6 |
| 20260509094148 | 11 | 266 | 0.0 | 1.6 | 0.00 | 0.03 | 0.00 | 84 | 1008.7 |
| 20260509093648 | 11 | 266 | 0.0 | 1.6 | 0.00 | 0.03 | 0.00 | 84 | 1008.7 |
| 20260509093406 | 11 | 266 | 0.0 | 0.0 | 0.00 | 0.03 | 0.00 | 84 | 1008.7 |
| 20260509092648 | 11 | 266 | 0.0 | 0.0 | 0.00 | 0.03 | 0.00 | 83 | 1008.8 |
| 20260509092148 | 11 | 266 | 0.0 | 4.8 | 0.00 | 0.03 | 0.00 | 83 | 1008.8 |
| 20260509091649 | 11 | 266 | 0.0 | 4.8 | 0.00 | 0.03 | 0.00 | 83 | 1008.9 |
| 20260509091150 | 11 | 141 | 0.0 | 0.0 | 0.00 | 0.03 | 0.00 | 82 | 1008.8 |
| 20260509090642 | 11 | 141 | 0.0 | 0.0 | 0.00 | 0.03 | 0.00 | 81 | 1008.8 |
| 20260509090137 | 11 | 141 | 0.0 | 0.0 | 0.00 | 0.03 | 0.00 | 81 | 1008.8 |
| 20260509085630 | 12 | 141 | 0.0 | 0.0 | 0.00 | 0.03 | 0.00 | 81 | 1008.8 |
| 20260509085345 | 12 | 141 | 0.0 | 0.0 | 0.00 | 0.03 | 0.00 | 80 | 1008.8 |
| 20260509084839 | 12 | 141 | 0.0 | 0.0 | 0.00 | 0.03 | 0.00 | 80 | 1008.7 |
| 20260509084112 | 12 | 141 | 0.0 | 0.0 | 0.00 | 0.03 | 0.00 | 80 | 1008.7 |
| 20260509083828 | 12 | 141 | 0.0 | 0.0 | 0.00 | 0.03 | 0.00 | 80 | 1008.6 |
| 20260509083107 | 12 | 141 | 0.0 | 0.0 | 0.00 | 0.03 | 0.00 | 79 | 1008.6 |
| 20260509082607 | 12 | 141 | 0.0 | 0.0 | 0.00 | 0.03 | 0.00 | 79 | 1008.5 |
| 20260509082110 | 12 | 141 | 0.0 | 0.0 | 0.00 | 0.03 | 0.00 | 78 | 1008.4 |
| 20260509081608 | 12 | 141 | 0.0 | 0.0 | 0.00 | 0.03 | 0.00 | 78 | 1008.4 |
| 20260509081106 | 12 | 141 | 0.0 | 0.0 | 0.00 | 0.03 | 0.00 | 77 | 1008.4 |
| 20260509080603 | 12 | 141 | 0.0 | 0.0 | 0.00 | 0.03 | 0.00 | 76 | 1008.4 |
| 20260509080103 | 12 | 141 | 0.0 | 0.0 | 0.00 | 0.03 | 0.00 | 76 | 1008.4 |
| 20260509075605 | 12 | 141 | 0.0 | 0.0 | 0.00 | 0.03 | 0.00 | 75 | 1008.6 |
| 20260509075102 | 13 | 141 | 0.0 | 0.0 | 0.00 | 0.03 | 0.00 | 75 | 1008.8 |
| 20260509074559 | 13 | 141 | 0.0 | 0.0 | 0.00 | 0.03 | 0.00 | 75 | 1008.7 |
| 20260509074319 | 13 | 141 | 0.0 | 0.0 | 0.00 | 0.03 | 0.00 | 74 | 1008.7 |
| 20260509073557 | 13 | 141 | 0.0 | 0.0 | 0.00 | 0.03 | 0.00 | 74 | 1008.8 |
| 20260509073054 | 13 | 141 | 0.0 | 1.6 | 0.00 | 0.03 | 0.00 | 74 | 1008.8 |
| 20260509072555 | 13 | 141 | 0.0 | 1.6 | 0.00 | 0.03 | 0.00 | 74 | 1008.7 |
| 20260509072049 | 13 | 186 | 0.0 | 3.2 | 0.00 | 0.03 | 0.00 | 74 | 1008.8 |
| 20260509071810 | 13 | 226 | 0.0 | 3.2 | 0.00 | 0.03 | 0.00 | 74 | 1008.8 |
| 20260509071047 | 13 | 226 | 0.0 | 1.6 | 0.00 | 0.03 | 0.00 | 74 | 1008.8 |
| 20260509070544 | 13 | 226 | 0.0 | 1.6 | 0.00 | 0.03 | 0.00 | 74 | 1008.9 |
| 20260509070044 | 13 | 226 | 0.0 | 1.6 | 0.00 | 0.03 | 0.00 | 74 | 1009.0 |
| 20260509065537 | 13 | 233 | 0.0 | 1.6 | 0.00 | 0.03 | 0.00 | 74 | 1009.1 |
| 20260509065032 | 13 | 233 | 0.0 | 3.2 | 0.00 | 0.03 | 0.00 | 74 | 1009.2 |
| 20260509064525 | 13 | 228 | 0.0 | 3.2 | 0.00 | 0.03 | 0.00 | 74 | 1009.3 |
| 20260509064247 | 13 | 100 | 0.0 | 1.6 | 0.00 | 0.03 | 0.00 | 74 | 1009.4 |
| 20260509063514 | 13 | 79 | 0.0 | 3.2 | 0.00 | 0.03 | 0.00 | 73 | 1009.5 |
| 20260509063008 | 13 | 91 | 0.0 | 3.2 | 0.00 | 0.03 | 0.00 | 73 | 1009.6 |
| 20260509062502 | 13 | 145 | 0.0 | 0.0 | 0.00 | 0.03 | 0.00 | 72 | 1009.7 |
| 20260509061956 | 13 | 145 | 0.0 | 0.0 | 0.00 | 0.03 | 0.00 | 72 | 1009.8 |
| 20260509061450 | 13 | 145 | 0.0 | 0.0 | 0.00 | 0.03 | 0.00 | 71 | 1009.9 |
| 20260509060944 | 13 | 144 | 0.0 | 0.0 | 0.00 | 0.03 | 0.00 | 70 | 1009.9 |
| 20260509060701 | 13 | 144 | 0.0 | 0.0 | 0.00 | 0.03 | 0.00 | 70 | 1009.9 |
| 20260509060427 | 13 | 145 | 0.0 | 0.0 | 0.00 | 0.03 | 0.00 | 69 | 1010.0 |
| 20260509055426 | 13 | 144 | 0.0 | 0.0 | 0.00 | 0.03 | 0.00 | 68 | 1009.9 |
| 20260509054920 | 13 | 144 | 0.0 | 1.6 | 0.00 | 0.03 | 0.00 | 67 | 1009.9 |
| 20260509054414 | 13 | 144 | 0.0 | 1.6 | 0.00 | 0.03 | 0.00 | 67 | 1009.9 |
| 20260509053908 | 13 | 145 | 0.0 | 1.6 | 0.00 | 0.03 | 0.00 | 66 | 1009.9 |
| 20260509053624 | 13 | 144 | 0.0 | 1.6 | 0.00 | 0.03 | 0.00 | 66 | 1009.9 |
| 20260509053119 | 13 | 144 | 0.0 | 1.6 | 0.00 | 0.03 | 0.00 | 65 | 1009.8 |
| 20260509052350 | 13 | 144 | 0.0 | 1.6 | 0.00 | 0.03 | 0.00 | 65 | 1009.7 |
| 20260509051843 | 13 | 139 | 0.0 | 1.6 | 0.00 | 0.03 | 0.00 | 64 | 1009.7 |
| 20260509051338 | 13 | 139 | 0.0 | 1.6 | 0.00 | 0.03 | 0.00 | 64 | 1009.7 |
| 20260509050832 | 13 | 129 | 0.0 | 1.6 | 0.00 | 0.03 | 0.00 | 64 | 1009.7 |
| 20260509050326 | 13 | 129 | 0.0 | 1.6 | 0.00 | 0.03 | 0.00 | 64 | 1009.7 |
| 20260509050046 | 13 | 129 | 0.0 | 0.0 | 0.00 | 0.03 | 0.00 | 64 | 1009.7 |
| 20260509045314 | 13 | 129 | 0.0 | 0.0 | 0.00 | 0.03 | 0.00 | 63 | 1009.6 |
| 20260509044808 | 13 | 129 | 0.0 | 0.0 | 0.00 | 0.03 | 0.00 | 63 | 1009.5 |
| 20260509044258 | 13 | 129 | 0.0 | 0.0 | 0.00 | 0.03 | 0.00 | 63 | 1009.5 |
| 20260509043752 | 14 | 129 | 0.0 | 0.0 | 0.00 | 0.03 | 0.00 | 63 | 1009.5 |
| 20260509043735 | 14 | 129 | 0.0 | 0.0 | 0.00 | 0.03 | 0.00 | 63 | 1009.4 |
| 20260509042740 | 14 | 129 | 0.0 | 0.0 | 0.00 | 0.03 | 0.00 | 61 | 1009.6 |
| 20260509042234 | 15 | 129 | 0.0 | 0.0 | 0.00 | 0.03 | 0.00 | 60 | 1009.5 |
| 20260509041728 | 15 | 129 | 0.0 | 0.0 | 0.00 | 0.03 | 0.00 | 59 | 1009.5 |
| 20260509041224 | 15 | 129 | 0.0 | 0.0 | 0.00 | 0.03 | 0.00 | 59 | 1009.6 |
| 20260509040724 | 15 | 129 | 0.0 | 0.0 | 0.00 | 0.03 | 0.00 | 58 | 1009.7 |
| 20260509040224 | 15 | 129 | 0.0 | 1.6 | 0.00 | 0.03 | 0.00 | 58 | 1009.6 |
| 20260509035942 | 15 | 129 | 0.0 | 1.6 | 0.00 | 0.03 | 0.03 | 57 | 1009.6 |
| 20260509035222 | 15 | 129 | 0.0 | 0.0 | 0.00 | 0.03 | 0.03 | 58 | 1009.7 |
| 20260509034723 | 15 | 129 | 0.0 | 1.6 | 0.00 | 0.03 | 0.03 | 57 | 1009.8 |
| 20260509034221 | 15 | 129 | 0.0 | 1.6 | 0.00 | 0.03 | 0.03 | 56 | 1009.8 |
| 20260509033722 | 15 | 129 | 0.0 | 1.6 | 0.00 | 0.03 | 0.03 | 56 | 1009.8 |
| 20260509033220 | 15 | 129 | 0.0 | 1.6 | 0.00 | 0.03 | 0.03 | 56 | 1010.0 |
| 20260509032718 | 15 | 129 | 0.0 | 1.6 | 0.00 | 0.03 | 0.03 | 56 | 1010.0 |
| 20260509032219 | 15 | 129 | 0.0 | 1.6 | 0.00 | 0.03 | 0.03 | 55 | 1010.0 |
| 20260509031719 | 15 | 52 | 0.0 | 1.6 | 0.00 | 0.03 | 0.03 | 55 | 1009.9 |
| 20260509031215 | 15 | 150 | 0.0 | 0.0 | 0.00 | 0.03 | 0.03 | 55 | 1010.0 |
| 20260509030715 | 15 | 150 | 0.0 | 1.6 | 0.00 | 0.03 | 0.03 | 55 | 1009.9 |
| 20260509030216 | 15 | 150 | 0.0 | 1.6 | 0.00 | 0.03 | 0.03 | 54 | 1009.8 |
| 20260509025714 | 15 | 150 | 0.0 | 1.6 | 0.00 | 0.03 | 0.03 | 54 | 1009.8 |
| 20260509025212 | 15 | 217 | 0.0 | 1.6 | 0.00 | 0.03 | 0.03 | 53 | 1010.0 |
| 20260509024934 | 15 | 219 | 0.0 | 0.0 | 0.00 | 0.03 | 0.03 | 53 | 1009.9 |
| 20260509024208 | 15 | 219 | 0.0 | 1.6 | 0.00 | 0.03 | 0.03 | 53 | 1009.9 |
| 20260509023928 | 15 | 219 | 0.0 | 1.6 | 0.00 | 0.03 | 0.03 | 52 | 1010.0 |
| 20260509023204 | 15 | 219 | 0.0 | 1.6 | 0.00 | 0.03 | 0.03 | 52 | 1009.9 |
| 20260509022659 | 15 | 219 | 0.0 | 1.6 | 0.00 | 0.03 | 0.03 | 51 | 1009.9 |
| 20260509022158 | 16 | 219 | 0.0 | 1.6 | 0.00 | 0.03 | 0.03 | 50 | 1009.9 |
| 20260509022152 | 15 | 219 | 0.0 | 1.6 | 0.00 | 0.03 | 0.03 | 50 | 1009.9 |
| 20260509021359 | 16 | 141 | 0.0 | 1.6 | 0.00 | 0.03 | 0.03 | 50 | 1010.0 |
| 20260509020634 | 16 | 141 | 0.0 | 0.0 | 0.00 | 0.03 | 0.03 | 50 | 1010.0 |
| 20260509020128 | 16 | 57 | 0.0 | 0.0 | 0.00 | 0.03 | 0.03 | 49 | 1009.9 |
| 20260509015621 | 16 | 56 | 0.0 | 0.0 | 0.00 | 0.03 | 0.03 | 49 | 1009.7 |
| 20260509015113 | 16 | 56 | 0.0 | 0.0 | 0.00 | 0.03 | 0.03 | 48 | 1009.7 |
| 20260509014612 | 16 | 57 | 0.0 | 0.0 | 0.00 | 0.03 | 0.03 | 48 | 1009.8 |
| 20260509014058 | 16 | 56 | 0.0 | 0.0 | 0.00 | 0.03 | 0.03 | 47 | 1009.8 |
| 20260509013552 | 16 | 56 | 0.0 | 1.6 | 0.00 | 0.03 | 0.03 | 47 | 1009.7 |
| 20260509013320 | 16 | 56 | 0.0 | 1.6 | 0.00 | 0.03 | 0.03 | 47 | 1009.6 |
| 20260509012541 | 16 | 44 | 0.0 | 0.0 | 0.00 | 0.03 | 0.03 | 47 | 1009.6 |
| 20260509012034 | 16 | 44 | 0.0 | 0.0 | 0.00 | 0.03 | 0.03 | 47 | 1009.5 |
| 20260509011528 | 16 | 44 | 0.0 | 0.0 | 0.00 | 0.03 | 0.03 | 47 | 1009.4 |
| 20260509011220 | 17 | 44 | 0.0 | 0.0 | 0.00 | 0.03 | 0.03 | 46 | 1009.4 |
| 20260509011108 | 16 | 44 | 0.0 | 0.0 | 0.00 | 0.03 | 0.03 | 47 | 1009.5 |
| 20260509010010 | 17 | 44 | 0.0 | 0.0 | 0.00 | 0.03 | 0.03 | 46 | 1009.4 |
| 20260509005728 | 17 | 44 | 0.0 | 1.6 | 0.00 | 0.03 | 0.03 | 46 | 1009.5 |
| 20260509004957 | 17 | 44 | 0.0 | 1.6 | 0.00 | 0.03 | 0.03 | 45 | 1009.4 |
| 20260509004451 | 17 | 46 | 0.0 | 1.6 | 0.00 | 0.03 | 0.03 | 45 | 1009.4 |
| 20260509003946 | 17 | 46 | 0.0 | 1.6 | 0.00 | 0.03 | 0.03 | 44 | 1009.5 |
| 20260509003440 | 18 | 46 | 0.0 | 0.0 | 0.00 | 0.03 | 0.03 | 44 | 1009.4 |
| 20260509002934 | 18 | 41 | 0.0 | 1.6 | 0.00 | 0.03 | 0.03 | 44 | 1009.3 |
| 20260509002428 | 18 | 41 | 0.0 | 1.6 | 0.00 | 0.03 | 0.03 | 43 | 1009.3 |
| 20260509001922 | 18 | 41 | 0.0 | 1.6 | 0.00 | 0.03 | 0.03 | 43 | 1009.3 |
| 20260509001415 | 18 | 31 | 0.0 | 1.6 | 0.00 | 0.03 | 0.03 | 43 | 1009.3 |
| 20260509000910 | 18 | 30 | 0.0 | 1.6 | 0.00 | 0.03 | 0.03 | 42 | 1009.3 |
| 20260509000403 | 18 | 231 | 0.0 | 1.6 | 0.00 | 0.03 | 0.03 | 42 | 1009.3 |
| 20260508235858 | 19 | 233 | 0.0 | 1.6 | 0.00 | 0.03 | 0.03 | 41 | 1009.2 |
| 20260508235616 | 19 | 233 | 0.0 | 1.6 | 0.00 | 0.03 | 0.03 | 41 | 1009.1 |
| 20260508234846 | 19 | 131 | 0.0 | 4.8 | 0.00 | 0.03 | 0.03 | 40 | 1009.0 |
| 20260508234340 | 20 | 237 | 0.0 | 4.8 | 0.00 | 0.03 | 0.03 | 40 | 1008.9 |
| 20260508233833 | 20 | 164 | 0.0 | 1.6 | 0.00 | 0.03 | 0.03 | 39 | 1008.9 |
| 20260508233328 | 20 | 164 | 0.0 | 1.6 | 0.00 | 0.03 | 0.03 | 38 | 1008.9 |
| 20260508232822 | 20 | 222 | 0.0 | 1.6 | 0.00 | 0.03 | 0.03 | 38 | 1008.8 |
| 20260508232315 | 20 | 75 | 0.0 | 3.2 | 0.00 | 0.03 | 0.03 | 38 | 1008.8 |
| 20260508231810 | 20 | 307 | 0.0 | 3.2 | 0.00 | 0.03 | 0.03 | 38 | 1008.7 |
| 20260508231304 | 20 | 238 | 0.0 | 4.8 | 0.00 | 0.03 | 0.03 | 37 | 1008.7 |
| 20260508230757 | 21 | 19 | 0.0 | 4.8 | 0.00 | 0.03 | 0.03 | 37 | 1008.7 |
| 20260508230252 | 21 | 43 | 0.0 | 3.2 | 0.00 | 0.03 | 0.03 | 37 | 1008.8 |
| 20260508225746 | 21 | 89 | 0.0 | 3.2 | 0.00 | 0.03 | 0.03 | 34 | 1008.7 |
| 20260508225240 | 21 | 162 | 0.0 | 3.2 | 0.00 | 0.03 | 0.03 | 35 | 1008.7 |
| 20260508224734 | 21 | 200 | 0.0 | 1.6 | 0.00 | 0.03 | 0.03 | 37 | 1008.7 |
| 20260508224229 | 21 | 146 | 0.0 | 1.6 | 0.00 | 0.03 | 0.03 | 36 | 1008.7 |
| 20260508223722 | 22 | 120 | 0.0 | 1.6 | 0.00 | 0.03 | 0.03 | 36 | 1008.7 |
| 20260508223215 | 22 | 156 | 1.6 | 6.4 | 0.00 | 0.03 | 0.03 | 35 | 1008.7 |
| 20260508222709 | 22 | 304 | 1.6 | 8.0 | 0.00 | 0.03 | 0.03 | 33 | 1008.8 |
| 20260508222204 | 22 | 144 | 1.6 | 9.7 | 0.00 | 0.03 | 0.03 | 34 | 1008.9 |
| 20260508221658 | 22 | 30 | 1.6 | 9.7 | 0.00 | 0.03 | 0.03 | 33 | 1008.9 |
| 20260508221152 | 22 | 236 | 1.6 | 8.0 | 0.00 | 0.03 | 0.03 | 32 | 1009.0 |
| 20260508220646 | 23 | 233 | 1.6 | 6.4 | 0.00 | 0.03 | 0.03 | 33 | 1009.0 |
| 20260508220143 | 23 | 49 | 0.0 | 3.2 | 0.00 | 0.03 | 0.03 | 32 | 1009.0 |
| 20260508215643 | 23 | 103 | 0.0 | 3.2 | 0.00 | 0.03 | 0.03 | 32 | 1009.0 |
| 20260508215625 | 24 | 164 | 0.0 | 3.2 | 0.00 | 0.03 | 0.03 | 32 | 1009.0 |
| 20260508214645 | 25 | 41 | 0.0 | 3.2 | 0.00 | 0.03 | 0.03 | 30 | 1009.0 |
| 20260508214349 | 24 | 205 | 1.6 | 6.4 | 0.00 | 0.03 | 0.03 | 30 | 1009.1 |
| 20260508214238 | 24 | 94 | 0.0 | 3.2 | 0.00 | 0.03 | 0.03 | 30 | 1009.0 |
| 20260508213140 | 24 | 44 | 1.6 | 6.4 | 0.00 | 0.03 | 0.03 | 31 | 1009.1 |
| 20260508212639 | 25 | 210 | 1.6 | 6.4 | 0.00 | 0.03 | 0.03 | 29 | 1009.1 |
| 20260508212138 | 25 | 215 | 0.0 | 3.2 | 0.00 | 0.03 | 0.03 | 30 | 1009.0 |
| 20260508211636 | 24 | 215 | 0.0 | 6.4 | 0.00 | 0.03 | 0.03 | 31 | 1009.0 |
| 20260508211135 | 24 | 219 | 1.6 | 6.4 | 0.00 | 0.03 | 0.03 | 29 | 1009.0 |
| 20260508210900 | 23 | 210 | 1.6 | 9.7 | 0.00 | 0.03 | 0.03 | 30 | 1009.0 |
| 20260508210736 | 24 | 297 | 1.6 | 9.7 | 0.00 | 0.03 | 0.03 | 31 | 1009.1 |
| 20260508205636 | 23 | 176 | 1.6 | 9.7 | 0.00 | 0.03 | 0.03 | 32 | 1009.1 |
| 20260508205134 | 23 | 224 | 1.6 | 9.7 | 0.00 | 0.05 | 0.03 | 30 | 1009.2 |
| 20260508204857 | 23 | 193 | 1.6 | 9.7 | 0.00 | 0.05 | 0.03 | 31 | 1009.3 |
| 20260508204404 | 23 | 193 | 1.6 | 6.4 | 0.00 | 0.10 | 0.03 | 30 | 1009.2 |
| 20260508203635 | 23 | 343 | 1.6 | 8.0 | 0.00 | 0.13 | 0.03 | 30 | 1009.2 |
| 20260508203135 | 23 | 1 | 1.6 | 8.0 | 0.00 | 0.15 | 0.03 | 30 | 1009.3 |
| 20260508202636 | 24 | 214 | 1.6 | 6.4 | 0.00 | 0.20 | 0.03 | 31 | 1009.3 |
| 20260508202134 | 24 | 144 | 1.6 | 8.0 | 0.00 | 0.23 | 0.03 | 31 | 1009.3 |
| 20260508201634 | 25 | 69 | 0.0 | 8.0 | 0.00 | 0.23 | 0.03 | 29 | 1009.4 |
| 20260508201136 | 24 | 158 | 0.0 | 4.8 | 0.00 | 0.28 | 0.03 | 32 | 1009.3 |
| 20260508200636 | 24 | 186 | 0.0 | 4.8 | 0.00 | 0.30 | 0.03 | 34 | 1009.4 |
| 20260508200135 | 23 | 211 | 1.6 | 8.0 | 0.00 | 0.33 | 0.03 | 33 | 1009.5 |
| 20260508195636 | 23 | 345 | 1.6 | 8.0 | 0.00 | 0.33 | 0.03 | 33 | 1009.6 |
| 20260508195353 | 23 | 195 | 1.6 | 9.7 | 0.00 | 0.33 | 0.03 | 36 | 1009.5 |
| 20260508194632 | 23 | 276 | 1.6 | 11.3 | 0.00 | 0.33 | 0.03 | 31 | 1009.7 |
| 20260508194132 | 23 | 225 | 1.6 | 11.3 | 0.00 | 0.33 | 0.03 | 32 | 1009.8 |
| 20260508193631 | 23 | 203 | 1.6 | 4.8 | 0.00 | 0.33 | 0.03 | 31 | 1009.8 |
| 20260508193358 | 23 | 191 | 1.6 | 6.4 | 0.00 | 0.33 | 0.03 | 34 | 1009.9 |
| 20260508192631 | 23 | 162 | 1.6 | 6.4 | 0.00 | 0.33 | 0.03 | 32 | 1009.9 |
| 20260508192131 | 23 | 229 | 1.6 | 9.7 | 0.00 | 0.33 | 0.03 | 31 | 1010.0 |
| 20260508191631 | 23 | 34 | 1.6 | 9.7 | 0.00 | 0.33 | 0.03 | 33 | 1010.3 |
| 20260508191353 | 23 | 130 | 1.6 | 6.4 | 0.00 | 0.33 | 0.03 | 34 | 1010.3 |
| 20260508190632 | 23 | 56 | 1.6 | 6.4 | 0.00 | 0.33 | 0.03 | 32 | 1010.5 |
| 20260508190132 | 23 | 176 | 1.6 | 6.4 | 0.00 | 0.33 | 0.03 | 35 | 1010.4 |
| 20260508185630 | 23 | 158 | 1.6 | 6.4 | 0.00 | 0.33 | 0.03 | 34 | 1010.4 |
| 20260508185131 | 23 | 117 | 1.6 | 6.4 | 0.00 | 0.33 | 0.03 | 33 | 1010.6 |
| 20260508184632 | 23 | 32 | 1.6 | 4.8 | 0.00 | 0.33 | 0.03 | 33 | 1010.6 |
| 20260508184128 | 23 | 154 | 1.6 | 8.0 | 0.00 | 0.33 | 0.03 | 34 | 1010.6 |
| 20260508183627 | 22 | 165 | 1.6 | 8.0 | 0.00 | 0.33 | 0.03 | 34 | 1010.7 |
| 20260508183127 | 23 | 245 | 1.6 | 8.0 | 0.00 | 0.33 | 0.03 | 35 | 1010.8 |
| 20260508182625 | 23 | 141 | 1.6 | 8.0 | 0.00 | 0.33 | 0.03 | 34 | 1010.8 |
| 20260508182125 | 23 | 125 | 0.0 | 8.0 | 0.00 | 0.33 | 0.03 | 36 | 1010.9 |
| 20260508181626 | 22 | 217 | 1.6 | 6.4 | 0.00 | 0.33 | 0.03 | 36 | 1010.9 |
| 20260508181125 | 22 | 235 | 1.6 | 6.4 | 0.00 | 0.33 | 0.03 | 34 | 1010.9 |
| 20260508180626 | 22 | 221 | 1.6 | 6.4 | 0.00 | 0.33 | 0.03 | 36 | 1011.1 |
| 20260508180120 | 22 | 226 | 1.6 | 6.4 | 0.00 | 0.33 | 0.03 | 36 | 1011.1 |
| 20260508175620 | 22 | 209 | 1.6 | 11.3 | 0.00 | 0.33 | 0.03 | 37 | 1011.1 |
| 20260508175123 | 22 | 289 | 1.6 | 11.3 | 0.00 | 0.33 | 0.03 | 33 | 1011.2 |
| 20260508174620 | 22 | 82 | 1.6 | 6.4 | 0.00 | 0.33 | 0.03 | 35 | 1011.2 |
| 20260508174121 | 22 | 129 | 1.6 | 6.4 | 0.00 | 0.33 | 0.03 | 33 | 1011.2 |
| 20260508173620 | 22 | 48 | 1.6 | 6.4 | 0.00 | 0.33 | 0.03 | 37 | 1011.3 |
| 20260508173119 | 22 | 232 | 0.0 | 3.2 | 0.00 | 0.33 | 0.03 | 38 | 1011.3 |
| 20260508173108 | 22 | 147 | 0.0 | 4.8 | 0.00 | 0.33 | 0.03 | 37 | 1011.4 |
| 20260508172116 | 21 | 206 | 1.6 | 8.0 | 0.00 | 0.33 | 0.03 | 38 | 1011.6 |
| 20260508171616 | 21 | 65 | 1.6 | 8.0 | 0.00 | 0.33 | 0.03 | 37 | 1011.6 |
| 20260508171118 | 21 | 229 | 1.6 | 6.4 | 0.00 | 0.33 | 0.03 | 36 | 1011.8 |